When you browse on this site, cookies collect data to enhance your experience and personalize the content and advertising you see.
Visit our Privacy Policy to learn more. By continuing to use the site, you agree to this use of cookies and data.
  • In Schweiz
  • Länderverzeichnis
  • Für 7 Tage
  • Wassertemperatur
  • Wetterkarte
  • Widgets
  • user-avatar
    Anmelden

    Stündliche Wetter Nettetal

    Heute, 25 Mai, Montag

    Zeit Temperatur Niederschläge Wind Luftdruck Luftfeuchtigkeit
    00:00 +10°C° 0 mm 3 m/S 769 mmHg 92%
    01:00 +10°C° 0 mm 3 m/S 769 mmHg 93%
    02:00 +10°C° 0 mm 3 m/S 769 mmHg 93%
    03:00 +10°C° 0 mm 3 m/S 769 mmHg 94%
    04:00 +11°C° 0 mm 3 m/S 769 mmHg 91%
    05:00 +12°C° 0 mm 3 m/S 769 mmHg 88%
    06:00 +13°C° 0 mm 4 m/S 769 mmHg 85%
    07:00 +14°C° 0.1 mm 4 m/S 769 mmHg 79%
    08:00 +17°C° 0.1 mm 4 m/S 770 mmHg 72%
    09:00 +18°C° 0.1 mm 4 m/S 770 mmHg 66%
    10:00 +19°C° 0.1 mm 4 m/S 770 mmHg 64%
    11:00 +19°C° 0.1 mm 4 m/S 769 mmHg 62%
    12:00 +19°C° 0.1 mm 4 m/S 769 mmHg 60%
    13:00 +20°C° 0.1 mm 4 m/S 769 mmHg 59%
    14:00 +20°C° 0.1 mm 5 m/S 769 mmHg 58%
    15:00 +20°C° 0.1 mm 5 m/S 769 mmHg 57%
    16:00 +19°C° 0 mm 4 m/S 770 mmHg 61%
    17:00 +19°C° 0 mm 4 m/S 770 mmHg 64%
    18:00 +18°C° 0 mm 4 m/S 770 mmHg 67%
    19:00 +16°C° 0 mm 3 m/S 770 mmHg 73%
    20:00 +14°C° 0 mm 3 m/S 771 mmHg 79%
    21:00 +12°C° 0 mm 3 m/S 771 mmHg 84%
    22:00 +11°C° 0 mm 3 m/S 771 mmHg 86%
    23:00 +12°C° 0 mm 2 m/S 771 mmHg 88%

    Morgen, 26 Mai, Dienstag

    Zeit Temperatur Niederschläge Wind Luftdruck Luftfeuchtigkeit
    00:00 +10°C° 0 mm 2 m/S 771 mmHg 90%
    01:00 +10°C° 0 mm 2 m/S 771 mmHg 90%
    02:00 +10°C° 0 mm 1 m/S 771 mmHg 91%
    03:00 +10°C° 0 mm 1 m/S 771 mmHg 91%
    04:00 +10°C° 0 mm 1 m/S 772 mmHg 87%
    05:00 +11°C° 0 mm 1 m/S 772 mmHg 84%
    06:00 +12°C° 0 mm 2 m/S 772 mmHg 80%
    07:00 +14°C° 0 mm 2 m/S 772 mmHg 73%
    08:00 +15°C° 0 mm 2 m/S 772 mmHg 65%
    09:00 +17°C° 0 mm 2 m/S 772 mmHg 58%
    10:00 +18°C° 0 mm 2 m/S 772 mmHg 54%
    11:00 +19°C° 0 mm 2 m/S 771 mmHg 49%
    12:00 +21°C° 0 mm 2 m/S 771 mmHg 45%
    13:00 +21°C° 0 mm 3 m/S 771 mmHg 45%
    14:00 +21°C° 0 mm 3 m/S 770 mmHg 45%
    15:00 +22°C° 0 mm 3 m/S 770 mmHg 45%
    16:00 +21°C° 0 mm 3 m/S 770 mmHg 50%
    17:00 +20°C° 0 mm 3 m/S 770 mmHg 55%
    18:00 +20°C° 0 mm 2 m/S 770 mmHg 60%
    19:00 +18°C° 0 mm 2 m/S 770 mmHg 62%
    20:00 +16°C° 0 mm 2 m/S 771 mmHg 65%
    21:00 +15°C° 0 mm 1 m/S 771 mmHg 68%
    22:00 +14°C° 0 mm 1 m/S 771 mmHg 72%
    23:00 +13°C° 0 mm 1 m/S 771 mmHg 76%

    übermorgen, 27 Mai, Mittwoch

    Zeit Temperatur Niederschläge Wind Luftdruck Luftfeuchtigkeit
    00:00 +13°C° 0 mm 1 m/S 771 mmHg 79%
    01:00 +12°C° 0 mm 1 m/S 771 mmHg 80%
    02:00 +11°C° 0 mm 0 m/S 770 mmHg 81%
    03:00 +11°C° 0 mm 0 m/S 770 mmHg 83%
    04:00 +12°C° 0 mm 0 m/S 770 mmHg 79%
    05:00 +13°C° 0 mm 0 m/S 770 mmHg 75%
    06:00 +15°C° 0 mm 1 m/S 770 mmHg 72%
    07:00 +18°C° 0 mm 1 m/S 770 mmHg 67%
    08:00 +20°C° 0 mm 1 m/S 770 mmHg 62%
    09:00 +20°C° 0 mm 2 m/S 770 mmHg 57%
    10:00 +21°C° 0 mm 2 m/S 770 mmHg 54%
    11:00 +21°C° 0 mm 2 m/S 770 mmHg 51%
    12:00 +22°C° 0 mm 3 m/S 769 mmHg 49%
    13:00 +22°C° 0 mm 3 m/S 769 mmHg 49%
    14:00 +22°C° 0 mm 3 m/S 769 mmHg 50%
    15:00 +22°C° 0 mm 4 m/S 769 mmHg 51%
    16:00 +21°C° 0 mm 4 m/S 769 mmHg 57%
    17:00 +20°C° 0 mm 4 m/S 769 mmHg 63%
    18:00 +19°C° 0 mm 4 m/S 769 mmHg 68%
    19:00 +18°C° 0 mm 4 m/S 769 mmHg 71%
    20:00 +15°C° 0 mm 4 m/S 769 mmHg 74%
    21:00 +13°C° 0 mm 5 m/S 770 mmHg 76%
    22:00 +12°C° 0 mm 4 m/S 770 mmHg 74%
    23:00 +11°C° 0 mm 4 m/S 770 mmHg 72%

    28 Mai, Donnerstag

    Zeit Temperatur Niederschläge Wind Luftdruck Luftfeuchtigkeit
    00:00 +10°C° 0 mm 4 m/S 770 mmHg 70%
    01:00 +9°C° 0 mm 3 m/S 769 mmHg 73%
    02:00 +9°C° 0 mm 3 m/S 769 mmHg 75%
    03:00 +8°C° 0 mm 3 m/S 769 mmHg 78%
    04:00 +9°C° 0 mm 3 m/S 769 mmHg 75%
    05:00 +10°C° 0 mm 3 m/S 769 mmHg 71%
    06:00 +11°C° 0 mm 4 m/S 769 mmHg 68%
    07:00 +12°C° 0 mm 4 m/S 769 mmHg 63%
    08:00 +14°C° 0 mm 4 m/S 769 mmHg 57%
    09:00 +15°C° 0 mm 4 m/S 768 mmHg 52%
    10:00 +17°C° 0 mm 4 m/S 768 mmHg 52%
    11:00 +17°C° 0 mm 4 m/S 768 mmHg 52%
    12:00 +17°C° 0 mm 4 m/S 767 mmHg 52%
    13:00 +18°C° 0 mm 4 m/S 767 mmHg 52%
    14:00 +18°C° 0 mm 4 m/S 767 mmHg 52%
    15:00 +18°C° 0 mm 4 m/S 766 mmHg 52%
    16:00 +18°C° 0 mm 4 m/S 766 mmHg 54%
    17:00 +17°C° 0 mm 4 m/S 766 mmHg 57%
    18:00 +17°C° 0 mm 4 m/S 766 mmHg 60%
    19:00 +14°C° 0 mm 4 m/S 766 mmHg 63%
    20:00 +13°C° 0 mm 4 m/S 766 mmHg 66%
    21:00 +11°C° 0 mm 4 m/S 766 mmHg 69%
    22:00 +10°C° 0 mm 3 m/S 766 mmHg 74%
    23:00 +9°C° 0 mm 3 m/S 766 mmHg 78%

    29 Mai, Freitag

    Zeit Temperatur Niederschläge Wind Luftdruck Luftfeuchtigkeit
    00:00 +8°C° 0 mm 3 m/S 766 mmHg 82%
    01:00 +8°C° 0 mm 3 m/S 766 mmHg 84%
    02:00 +7°C° 0 mm 3 m/S 765 mmHg 86%
    03:00 +7°C° 0 mm 2 m/S 765 mmHg 88%
    04:00 +8°C° 0 mm 3 m/S 765 mmHg 83%
    05:00 +9°C° 0 mm 3 m/S 765 mmHg 79%
    06:00 +10°C° 0 mm 3 m/S 765 mmHg 74%
    07:00 +11°C° 0 mm 3 m/S 764 mmHg 65%
    08:00 +13°C° 0 mm 3 m/S 764 mmHg 56%
    09:00 +16°C° 0 mm 3 m/S 764 mmHg 47%
    10:00 +17°C° 0 mm 3 m/S 763 mmHg 43%
    11:00 +18°C° 0 mm 3 m/S 763 mmHg 39%
    12:00 +19°C° 0 mm 3 m/S 762 mmHg 35%
    13:00 +19°C° 0 mm 3 m/S 762 mmHg 36%
    14:00 +20°C° 0 mm 3 m/S 762 mmHg 37%
    15:00 +20°C° 0 mm 4 m/S 761 mmHg 38%
    16:00 +19°C° 0 mm 3 m/S 761 mmHg 43%
    17:00 +18°C° 0 mm 3 m/S 761 mmHg 48%
    18:00 +18°C° 0 mm 3 m/S 761 mmHg 53%
    19:00 +16°C° 0 mm 3 m/S 761 mmHg 55%
    20:00 +14°C° 0 mm 3 m/S 761 mmHg 58%
    21:00 +12°C° 0 mm 3 m/S 761 mmHg 60%
    22:00 +12°C° 0 mm 3 m/S 762 mmHg 65%
    23:00 +12°C° 0 mm 2 m/S 762 mmHg 71%

    30 Mai, Samstag

    Zeit Temperatur Niederschläge Wind Luftdruck Luftfeuchtigkeit
    00:00 +12°C° 0 mm 2 m/S 762 mmHg 76%
    01:00 +10°C° 0 mm 2 m/S 762 mmHg 77%
    02:00 +10°C° 0 mm 2 m/S 761 mmHg 78%
    03:00 +10°C° 0 mm 2 m/S 761 mmHg 79%
    04:00 +12°C° 0 mm 2 m/S 761 mmHg 76%
    05:00 +13°C° 0 mm 2 m/S 761 mmHg 72%
    06:00 +14°C° 0 mm 2 m/S 762 mmHg 68%
    07:00 +15°C° 0 mm 2 m/S 762 mmHg 62%
    08:00 +17°C° 0 mm 3 m/S 762 mmHg 56%
    09:00 +18°C° 0 mm 3 m/S 762 mmHg 49%
    10:00 +19°C° 0 mm 3 m/S 761 mmHg 45%
    11:00 +20°C° 0 mm 2 m/S 761 mmHg 41%
    12:00 +21°C° 0 mm 2 m/S 761 mmHg 37%
    13:00 +21°C° 0 mm 2 m/S 761 mmHg 37%
    14:00 +23°C° 0 mm 2 m/S 761 mmHg 37%
    15:00 +23°C° 0 mm 2 m/S 760 mmHg 37%
    16:00 +21°C° 0 mm 3 m/S 760 mmHg 43%
    17:00 +20°C° 0 mm 3 m/S 760 mmHg 48%
    18:00 +19°C° 0 mm 3 m/S 760 mmHg 53%
    19:00 +17°C° 0 mm 3 m/S 760 mmHg 55%
    20:00 +16°C° 0 mm 3 m/S 761 mmHg 57%
    21:00 +13°C° 0 mm 3 m/S 761 mmHg 59%
    22:00 +13°C° 0 mm 3 m/S 761 mmHg 62%
    23:00 +13°C° 0 mm 2 m/S 761 mmHg 65%
    Mehr zeigen